Time,TemperatureF,DewpointF,PressureIn,WindDirection,WindDirectionDegrees,WindSpeedMPH,WindSpeedGustMPH,Humidity,HourlyPrecipIn,Conditions,Clouds,dailyrainin,SoftwareType,DateUTC
2013-05-08 00:04:00,64.4,59.0,30.00,West,267,0.0,-999.0,82,-99.99,,,0.00,weatherlink.com 1.10,2013-05-08 04:04:00,
2013-05-08 00:19:00,64.0,59.0,30.00,West,267,0.0,-999.0,83,-99.99,,,0.00,weatherlink.com 1.10,2013-05-08 04:19:00,
2013-05-08 00:34:00,63.7,59.0,30.00,West,267,0.0,-999.0,84,-99.99,,,0.00,weatherlink.com 1.10,2013-05-08 04:34:00,
2013-05-08 00:49:00,63.4,59.0,30.00,West,267,0.0,-999.0,85,-99.99,,,0.00,weatherlink.com 1.10,2013-05-08 04:49:00,
2013-05-08 01:04:00,63.0,59.0,29.99,West,267,0.0,-999.0,85,-99.99,,,0.00,weatherlink.com 1.10,2013-05-08 05:04:00,
2013-05-08 01:19:00,62.3,58.0,29.99,West,267,0.0,-999.0,86,-99.99,,,0.00,weatherlink.com 1.10,2013-05-08 05:19:00,
2013-05-08 01:34:00,61.8,58.0,29.99,West,267,0.0,-999.0,88,-99.99,,,0.00,weatherlink.com 1.10,2013-05-08 05:34:00,
2013-05-08 01:49:00,60.7,58.0,29.99,West,267,0.0,-999.0,89,-99.99,,,0.00,weatherlink.com 1.10,2013-05-08 05:49:00,
2013-05-08 02:04:00,59.5,57.0,29.99,West,267,0.0,-999.0,92,-99.99,,,0.00,weatherlink.com 1.10,2013-05-08 06:04:00,
2013-05-08 02:19:00,59.2,57.0,29.98,West,267,0.0,-999.0,93,-99.99,,,0.00,weatherlink.com 1.10,2013-05-08 06:19:00,
2013-05-08 02:34:00,59.0,57.0,29.98,West,267,0.0,-999.0,93,-99.99,,,0.00,weatherlink.com 1.10,2013-05-08 06:34:00,
2013-05-08 02:49:00,59.1,57.0,29.97,West,267,0.0,-999.0,94,-99.99,,,0.00,weatherlink.com 1.10,2013-05-08 06:49:00,
2013-05-08 03:04:00,59.3,58.0,29.97,West,267,0.0,-999.0,94,-99.99,,,0.00,weatherlink.com 1.10,2013-05-08 07:04:00,
2013-05-08 03:19:00,59.2,57.0,29.97,West,267,0.0,-999.0,93,-99.99,,,0.00,weatherlink.com 1.10,2013-05-08 07:19:00,
2013-05-08 03:34:00,59.2,58.0,29.97,West,267,0.0,-999.0,94,-99.99,,,0.00,weatherlink.com 1.10,2013-05-08 07:34:00,
2013-05-08 03:49:00,59.2,58.0,29.97,West,267,0.0,-999.0,94,-99.99,,,0.00,weatherlink.com 1.10,2013-05-08 07:49:00,
2013-05-08 04:04:00,59.0,57.0,29.98,West,267,0.0,-999.0,94,-99.99,,,0.00,weatherlink.com 1.10,2013-05-08 08:04:00,
2013-05-08 04:19:00,59.1,57.0,29.98,West,267,0.0,-999.0,94,-99.99,,,0.00,weatherlink.com 1.10,2013-05-08 08:19:00,
2013-05-08 04:34:00,58.7,57.0,29.99,West,267,0.0,-999.0,94,-99.99,,,0.00,weatherlink.com 1.10,2013-05-08 08:34:00,
2013-05-08 04:49:00,59.0,57.0,29.99,West,267,0.0,-999.0,94,-99.99,,,0.00,weatherlink.com 1.10,2013-05-08 08:49:00,
2013-05-08 05:04:00,59.2,58.0,29.99,West,267,0.0,-999.0,94,-99.99,,,0.00,weatherlink.com 1.10,2013-05-08 09:04:00,
2013-05-08 05:19:00,59.1,58.0,29.99,West,267,0.0,-999.0,95,-99.99,,,0.00,weatherlink.com 1.10,2013-05-08 09:19:00,
2013-05-08 05:34:00,58.8,57.0,29.99,West,267,0.0,-999.0,95,-99.99,,,0.00,weatherlink.com 1.10,2013-05-08 09:34:00,
2013-05-08 05:49:00,58.9,58.0,29.99,West,267,0.0,-999.0,95,-99.99,,,0.00,weatherlink.com 1.10,2013-05-08 09:49:00,
2013-05-08 06:04:00,58.9,58.0,30.00,West,267,0.0,-999.0,96,-99.99,,,0.00,weatherlink.com 1.10,2013-05-08 10:04:00,
2013-05-08 06:19:00,58.8,58.0,30.00,West,267,0.0,-999.0,96,-99.99,,,0.00,weatherlink.com 1.10,2013-05-08 10:19:00,
2013-05-08 06:34:00,59.1,58.0,30.00,West,267,0.0,-999.0,96,-99.99,,,0.00,weatherlink.com 1.10,2013-05-08 10:34:00,
2013-05-08 06:49:00,58.8,58.0,30.00,West,267,0.0,-999.0,97,-99.99,,,0.00,weatherlink.com 1.10,2013-05-08 10:49:00,
2013-05-08 07:04:00,59.7,59.0,30.02,West,267,0.0,-999.0,97,-99.99,,,0.00,weatherlink.com 1.10,2013-05-08 11:04:00,
2013-05-08 07:19:00,60.7,60.0,30.02,SSE,162,0.0,-999.0,97,-99.99,,,0.00,weatherlink.com 1.10,2013-05-08 11:19:00,
2013-05-08 07:34:00,61.8,61.0,30.03,SSE,162,0.0,-999.0,97,-99.99,,,0.00,weatherlink.com 1.10,2013-05-08 11:34:00,
2013-05-08 07:49:00,63.4,62.0,30.03,South,191,0.0,-999.0,95,-99.99,,,0.00,weatherlink.com 1.10,2013-05-08 11:49:00,
2013-05-08 08:05:00,65.3,63.0,30.05,SSW,201,0.0,-999.0,91,-99.99,,,0.00,weatherlink.com 1.10,2013-05-08 12:05:00,
2013-05-08 08:20:00,66.5,63.0,30.05,West,277,0.0,-999.0,88,-99.99,,,0.00,weatherlink.com 1.10,2013-05-08 12:20:00,
2013-05-08 08:35:00,68.4,64.0,30.05,WNW,289,0.0,-999.0,86,-99.99,,,0.00,weatherlink.com 1.10,2013-05-08 12:35:00,
2013-05-08 08:50:00,68.8,64.0,30.05,West,263,0.0,-999.0,83,-99.99,,,0.00,weatherlink.com 1.10,2013-05-08 12:50:00,
2013-05-08 09:05:00,70.4,64.0,30.06,West,263,0.0,-999.0,80,-99.99,,,0.00,weatherlink.com 1.10,2013-05-08 13:05:00,
2013-05-08 09:20:00,72.3,65.0,30.06,WNW,290,4.0,-999.0,77,-99.99,,,0.00,weatherlink.com 1.10,2013-05-08 13:20:00,
2013-05-08 09:35:00,73.5,64.0,30.06,West,271,0.0,-999.0,72,-99.99,,,0.00,weatherlink.com 1.10,2013-05-08 13:35:00,
2013-05-08 09:50:00,73.0,63.0,30.06,West,271,0.0,-999.0,72,-99.99,,,0.00,weatherlink.com 1.10,2013-05-08 13:50:00,
2013-05-08 10:05:00,75.0,63.0,30.06,West,265,2.0,-999.0,67,-99.99,,,0.00,weatherlink.com 1.10,2013-05-08 14:05:00,
2013-05-08 10:20:00,75.5,64.0,30.06,West,277,2.0,-999.0,67,-99.99,,,0.00,weatherlink.com 1.10,2013-05-08 14:20:00,
2013-05-08 10:35:00,76.3,63.0,30.06,WSW,250,0.0,-999.0,63,-99.99,,,0.00,weatherlink.com 1.10,2013-05-08 14:35:00,
2013-05-08 10:50:00,78.0,63.0,30.06,WNW,290,1.0,-999.0,61,-99.99,,,0.00,weatherlink.com 1.10,2013-05-08 14:50:00,
2013-05-08 11:05:00,77.3,61.0,30.07,West,263,4.0,-999.0,58,-99.99,,,0.00,weatherlink.com 1.10,2013-05-08 15:05:00,
2013-05-08 11:20:00,77.8,61.0,30.07,West,272,0.0,-999.0,56,-99.99,,,0.00,weatherlink.com 1.10,2013-05-08 15:20:00,
2013-05-08 11:35:00,79.8,62.0,30.07,West,281,0.0,-999.0,54,-99.99,,,0.00,weatherlink.com 1.10,2013-05-08 15:35:00,
2013-05-08 11:50:00,79.3,61.0,30.07,West,273,0.0,-999.0,54,-99.99,,,0.00,weatherlink.com 1.10,2013-05-08 15:50:00,
2013-05-08 12:05:00,79.6,61.0,30.07,SSW,211,5.0,-999.0,54,-99.99,,,0.00,weatherlink.com 1.10,2013-05-08 16:05:00,
2013-05-08 12:20:00,81.0,64.0,30.06,WSW,255,0.0,-999.0,56,-99.99,,,0.00,weatherlink.com 1.10,2013-05-08 16:20:00,
2013-05-08 12:35:00,80.1,62.0,30.06,SW,234,4.0,-999.0,54,-99.99,,,0.00,weatherlink.com 1.10,2013-05-08 16:35:00,
2013-05-08 12:50:00,80.9,63.0,30.06,SW,234,0.0,-999.0,55,-99.99,,,0.00,weatherlink.com 1.10,2013-05-08 16:50:00,
2013-05-08 13:05:00,75.8,64.0,30.06,ESE,111,0.0,-999.0,67,-99.99,,,0.00,weatherlink.com 1.10,2013-05-08 17:05:00,
2013-05-08 13:20:00,76.3,66.0,30.05,East,97,0.0,-999.0,70,-99.99,,,0.00,weatherlink.com 1.10,2013-05-08 17:20:00,
2013-05-08 13:35:00,79.2,69.0,30.05,NE,48,0.0,-999.0,71,-99.99,,,0.00,weatherlink.com 1.10,2013-05-08 17:35:00,
2013-05-08 13:50:00,77.7,66.0,30.05,NE,52,0.0,-999.0,67,-99.99,,,0.00,weatherlink.com 1.10,2013-05-08 17:50:00,
2013-05-08 14:05:00,77.1,66.0,30.04,ENE,65,0.0,-999.0,69,-99.99,,,0.00,weatherlink.com 1.10,2013-05-08 18:05:00,
2013-05-08 14:21:00,78.7,68.0,30.04,ENE,78,3.0,-999.0,69,-99.99,,,0.00,weatherlink.com 1.10,2013-05-08 18:21:00,
2013-05-08 14:35:00,77.7,66.0,30.04,NE,56,2.0,-999.0,68,-99.99,,,0.00,weatherlink.com 1.10,2013-05-08 18:35:00,
2013-05-08 14:50:00,77.6,66.0,30.04,ENE,75,6.0,-999.0,68,-99.99,,,0.00,weatherlink.com 1.10,2013-05-08 18:50:00,
2013-05-08 15:05:00,77.3,66.0,30.03,East,99,0.0,-999.0,69,-99.99,,,0.00,weatherlink.com 1.10,2013-05-08 19:05:00,
2013-05-08 15:20:00,79.3,67.0,30.03,ENE,64,4.0,-999.0,67,-99.99,,,0.00,weatherlink.com 1.10,2013-05-08 19:20:00,
2013-05-08 15:35:00,79.3,68.0,30.02,NE,55,8.0,-999.0,69,-99.99,,,0.00,weatherlink.com 1.10,2013-05-08 19:35:00,
2013-05-08 15:50:00,77.5,66.0,30.02,East,98,5.0,-999.0,68,-99.99,,,0.00,weatherlink.com 1.10,2013-05-08 19:50:00,
2013-05-08 16:05:00,76.5,66.0,30.01,East,97,7.0,-999.0,70,-99.99,,,0.00,weatherlink.com 1.10,2013-05-08 20:05:00,
2013-05-08 16:20:00,75.2,66.0,30.01,ESE,109,4.0,-999.0,72,-99.99,,,0.00,weatherlink.com 1.10,2013-05-08 20:20:00,
2013-05-08 16:35:00,76.8,67.0,30.01,East,96,4.0,-999.0,71,-99.99,,,0.00,weatherlink.com 1.10,2013-05-08 20:35:00,
2013-05-08 16:50:00,75.4,66.0,30.00,East,97,3.0,-999.0,72,-99.99,,,0.00,weatherlink.com 1.10,2013-05-08 20:50:00,
2013-05-08 17:05:00,76.2,66.0,30.00,ESE,113,0.0,-999.0,71,-99.99,,,0.00,weatherlink.com 1.10,2013-05-08 21:05:00,
2013-05-08 17:20:00,76.8,67.0,30.00,ESE,117,10.0,-999.0,71,-99.99,,,0.00,weatherlink.com 1.10,2013-05-08 21:20:00,
2013-05-08 17:35:00,76.5,66.0,30.00,East,86,3.0,-999.0,71,-99.99,,,0.00,weatherlink.com 1.10,2013-05-08 21:35:00,
2013-05-08 17:50:00,75.5,66.0,30.00,ESE,113,4.0,-999.0,72,-99.99,,,0.00,weatherlink.com 1.10,2013-05-08 21:50:00,
2013-05-08 18:05:00,76.8,67.0,30.00,SE,127,0.0,-999.0,71,-99.99,,,0.00,weatherlink.com 1.10,2013-05-08 22:05:00,
2013-05-08 18:20:00,76.4,66.0,30.00,SE,140,2.0,-999.0,71,-99.99,,,0.00,weatherlink.com 1.10,2013-05-08 22:20:00,
2013-05-08 18:35:00,74.9,65.0,30.00,ESE,107,3.0,-999.0,72,-99.99,,,0.00,weatherlink.com 1.10,2013-05-08 22:35:00,
2013-05-08 18:50:00,74.7,65.0,30.00,SE,144,2.0,-999.0,72,-99.99,,,0.00,weatherlink.com 1.10,2013-05-08 22:50:00,
2013-05-08 19:05:00,74.1,65.0,30.00,SE,126,3.0,-999.0,73,-99.99,,,0.00,weatherlink.com 1.10,2013-05-08 23:05:00,
2013-05-08 19:20:00,73.7,64.0,30.00,SE,125,0.0,-999.0,72,-99.99,,,0.00,weatherlink.com 1.10,2013-05-08 23:20:00,
2013-05-08 19:35:00,73.4,65.0,30.01,SE,132,4.0,-999.0,75,-99.99,,,0.00,weatherlink.com 1.10,2013-05-08 23:35:00,
2013-05-08 19:50:00,72.9,65.0,30.02,SE,130,0.0,-999.0,76,-99.99,,,0.00,weatherlink.com 1.10,2013-05-08 23:50:00,
2013-05-08 20:05:00,72.2,65.0,30.02,SE,130,0.0,-999.0,77,-99.99,,,0.00,weatherlink.com 1.10,2013-05-09 00:05:00,
2013-05-08 20:20:00,71.6,65.0,30.02,ESE,119,0.0,-999.0,79,-99.99,,,0.00,weatherlink.com 1.10,2013-05-09 00:20:00,
2013-05-08 20:35:00,71.3,65.0,30.02,ESE,119,0.0,-999.0,80,-99.99,,,0.00,weatherlink.com 1.10,2013-05-09 00:35:00,
2013-05-08 20:50:00,70.4,65.0,30.03,ESE,119,0.0,-999.0,83,-99.99,,,0.00,weatherlink.com 1.10,2013-05-09 00:50:00,
2013-05-08 21:05:00,69.7,65.0,30.03,ESE,119,0.0,-999.0,85,-99.99,,,0.00,weatherlink.com 1.10,2013-05-09 01:05:00,
2013-05-08 21:20:00,69.4,65.0,30.04,ESE,119,0.0,-999.0,87,-99.99,,,0.00,weatherlink.com 1.10,2013-05-09 01:20:00,
2013-05-08 21:35:00,68.9,65.0,30.04,ESE,119,0.0,-999.0,87,-99.99,,,0.00,weatherlink.com 1.10,2013-05-09 01:35:00,
2013-05-08 21:50:00,69.3,66.0,30.05,ESE,119,0.0,-999.0,89,-99.99,,,0.00,weatherlink.com 1.10,2013-05-09 01:50:00,
2013-05-08 22:05:00,70.4,66.0,30.05,ESE,119,0.0,-999.0,86,-99.99,,,0.00,weatherlink.com 1.10,2013-05-09 02:05:00,
2013-05-08 22:21:00,70.6,66.0,30.05,ESE,119,0.0,-999.0,85,-99.99,,,0.00,weatherlink.com 1.10,2013-05-09 02:21:00,
2013-05-08 22:36:00,70.3,66.0,30.05,ESE,119,0.0,-999.0,86,-99.99,,,0.00,weatherlink.com 1.10,2013-05-09 02:36:00,
2013-05-08 22:51:00,70.8,67.0,30.06,ESE,119,0.0,-999.0,86,-99.99,,,0.00,weatherlink.com 1.10,2013-05-09 02:51:00,
2013-05-08 23:06:00,70.6,66.0,30.07,SW,223,0.0,-999.0,84,-99.99,,,0.00,weatherlink.com 1.10,2013-05-09 03:06:00,
2013-05-08 23:21:00,70.2,66.0,30.07,SW,223,0.0,-999.0,85,-99.99,,,0.00,weatherlink.com 1.10,2013-05-09 03:21:00,
2013-05-08 23:36:00,69.3,65.0,30.08,SW,223,0.0,-999.0,85,-99.99,,,0.00,weatherlink.com 1.10,2013-05-09 03:36:00,
2013-05-08 23:51:00,69.0,64.0,30.07,West,266,4.0,-999.0,85,-99.99,,,0.00,weatherlink.com 1.10,2013-05-09 03:51:00,